Home > Weather > Enschede > Past weeks

Flag for Netherlands Past Weather in Enschede, Netherlands — Yesterday and Last 2 Weeks

Now
59 °F

Cool.


Feels Like: 59 °F
Forecast: 59 / 70 °F
Wind: 1 mph from South

Location: Deelen

Current Time: Jul 27, 2016 at 7:59:00 AM

Latest Report: Jul 27, 2016 at 7:25 AM


Visibility: N/A

Pressure: 30.04 "Hg

Humidity: 94%

Dew Point: 57 °F

Location of EnschedeLocation

Past Weather in Enschede — Graph

°F

Enschede Temperature Yesterday

Maximum temperature yesterday: 75 °F (at 2:55 PM)
Minimum temperature yesterday: 50 °F (at 6:25 AM)
Average temperature yesterday: 65 °F

High & Low Weather Summary for the Past Weeks

 TemperatureHumidityPressure
High91 °F (Jul 20, 2:55 PM)100% (Jul 13, 12:55 AM)30.27 "Hg (Jul 13, 12:55 AM)
Low43 °F (Jul 14, 4:55 AM)32% (Jul 20, 3:55 PM)29.83 "Hg (Jul 12, 6:25 AM)
Average66 °F77%30.07 "Hg
* Reported Jul 12 6:25 AM — Jul 27 6:55 AM, Enschede, Weather by CustomWeather, © 2016

Note: Actual official high and low records may vary slightly from our data, if they occured in-between our weather recording intervals... More about our weather records

Advertising

Enschede Weather History for the Previous 24 Hours

Scroll right to see more
 ConditionsComfort  
Time TempWeatherWind HumidityBarometerVisibility
6:55 AM
Wed, Jul 27
57 °FPartly sunny.1 mph100%30.04 "HgN/A
6:25 AM57 °FPassing clouds.1 mph94%30.04 "HgN/A
5:55 AM57 °FCool.2 mph94%30.04 "HgN/A
5:25 AM57 °FOvercast.1 mph94%30.04 "HgN/A
4:55 AM59 °FPassing clouds.1 mph94%30.04 "HgN/A
4:25 AM61 °FOvercast.1 mph88%30.07 "HgN/A
3:55 AM61 °FOvercast.1 mph88%30.07 "HgN/A
3:25 AM61 °FPassing clouds.2 mph88%30.07 "HgN/A
2:55 AM61 °FPartly cloudy.1 mph88%30.07 "HgN/A
2:25 AM61 °FOvercast.1 mph88%30.07 "HgN/A
1:55 AM63 °FMostly cloudy.2 mph83%30.09 "HgN/A
1:25 AM63 °FOvercast.1 mph83%30.09 "HgN/A
12:55 AM63 °FPartly cloudy.1 mph88%30.09 "HgN/A
12:25 AM63 °FPassing clouds.2 mph83%30.09 "HgN/A
11:55 PM
Tue, Jul 26
63 °FMostly cloudy.2 mph83%30.09 "HgN/A
11:25 PM63 °FMostly cloudy.2 mph83%30.09 "HgN/A
10:55 PM63 °FPassing clouds.5 mph88%30.09 "HgN/A
10:25 PM64 °FPassing clouds.5 mph78%30.09 "HgN/A
9:55 PM66 °FPartly sunny.2 mph78%30.09 "Hg6 mi
9:25 PM68 °FPartly sunny.5 mph69%30.09 "HgN/A
8:55 PM68 °FBroken clouds.6 mph73%30.09 "HgN/A
8:25 PM70 °FOvercast.2 mph69%30.09 "HgN/A
7:55 PM72 °FOvercast.5 mph65%30.09 "HgN/A
7:25 PM72 °FPartly sunny.6 mph61%30.09 "HgN/A
6:55 PM72 °FMore clouds than sun.5 mph61%30.09 "HgN/A
6:25 PM73 °FOvercast.6 mph57%30.09 "HgN/A
5:55 PM73 °FPassing clouds.6 mph57%30.09 "HgN/A
5:25 PM73 °FPartly sunny.9 mph53%30.12 "HgN/A
4:55 PM75 °FBroken clouds.3 mph50%30.12 "HgN/A
4:25 PM75 °FPartly sunny.6 mph44%30.12 "HgN/A
3:55 PM75 °FBroken clouds.7 mph47%30.12 "HgN/A
3:25 PM75 °FPartly sunny.6 mph47%30.12 "HgN/A
2:55 PM75 °FScattered clouds.5 mph50%30.12 "HgN/A
2:25 PM73 °FMore clouds than sun.5 mph53%30.12 "HgN/A
1:55 PM72 °FOvercast.6 mph57%30.12 "HgN/A
1:25 PM72 °FBroken clouds.5 mph57%30.12 "HgN/A
12:55 PM73 °FPassing clouds.6 mph57%30.12 "HgN/A
12:25 PM72 °FPassing clouds.6 mph53%30.12 "HgN/A
11:55 AM72 °FPassing clouds.5 mph61%30.15 "HgN/A
11:25 AM70 °FPassing clouds.5 mph64%30.15 "HgN/A
10:55 AM70 °FPassing clouds.7 mph69%30.15 "HgN/A
10:25 AM68 °FPassing clouds.6 mph69%30.15 "HgN/A
9:55 AM68 °FPassing clouds.7 mph73%30.15 "HgN/A
9:25 AM66 °FMild.6 mph78%30.15 "HgN/A
8:55 AM64 °FMild.3 mph83%30.15 "HgN/A
8:25 AM61 °FPassing clouds.1 mph94%30.12 "HgN/A
7:55 AM59 °FFog.No wind94%30.12 "Hg6 mi
7:25 AM55 °FPassing clouds.No wind100%30.12 "HgN/A
Weather by CustomWeather, © 2016

See weather overviewHow to use our weather pages